Hourly Weather Abbakumovo

Today, 7 March, Sunday

Time Temperature Precipitation Wind Pressure Humidity
00:00 -11°C° 0.1 mm 6 mps 736 mmHg 84%
01:00 -12°C° 0.1 mm 7 mps 735 mmHg 87%
02:00 -11°C° 0 mm 8 mps 734 mmHg 92%
03:00 -10°C° 0.4 mm 8 mps 733 mmHg 92%
04:00 -10°C° 0.4 mm 9 mps 732 mmHg 92%
05:00 -10°C° 0.4 mm 9 mps 730 mmHg 92%
06:00 -9°C° 0.6 mm 9 mps 729 mmHg 92%
07:00 -9°C° 0.6 mm 9 mps 728 mmHg 92%
08:00 -8°C° 0 mm 9 mps 727 mmHg 91%
09:00 -8°C° 0.3 mm 9 mps 727 mmHg 92%
10:00 -6°C° 0.3 mm 9 mps 726 mmHg 92%
11:00 -5°C° 0.3 mm 8 mps 726 mmHg 92%
12:00 -6°C° 0.7 mm 7 mps 726 mmHg 90%
13:00 -6°C° 0.7 mm 5 mps 725 mmHg 88%
14:00 -5°C° 0 mm 4 mps 725 mmHg 81%
15:00 -7°C° 0 mm 4 mps 725 mmHg 82%
16:00 -7°C° 0 mm 5 mps 725 mmHg 83%
17:00 -7°C° 0 mm 5 mps 725 mmHg 83%
18:00 -8°C° 0 mm 5 mps 726 mmHg 83%
19:00 -9°C° 0 mm 4 mps 726 mmHg 82%
20:00 -11°C° 0 mm 4 mps 727 mmHg 81%
21:00 -11°C° 0 mm 4 mps 727 mmHg 84%
22:00 -10°C° 0 mm 4 mps 726 mmHg 86%
23:00 -10°C° 0 mm 4 mps 726 mmHg 88%

Tomorrow, 8 March, Monday

Time Temperature Precipitation Wind Pressure Humidity
00:00 -11°C° 0.1 mm 5 mps 726 mmHg 89%
01:00 -11°C° 0.1 mm 5 mps 726 mmHg 90%
02:00 -11°C° 0.1 mm 5 mps 726 mmHg 91%
03:00 -11°C° 0 mm 5 mps 727 mmHg 89%
04:00 -11°C° 0 mm 5 mps 727 mmHg 87%
05:00 -12°C° 0 mm 6 mps 727 mmHg 85%
06:00 -12°C° 0 mm 5 mps 728 mmHg 86%
07:00 -13°C° 0 mm 5 mps 728 mmHg 88%
08:00 -14°C° 0 mm 5 mps 729 mmHg 89%
09:00 -13°C° 0 mm 5 mps 730 mmHg 88%
10:00 -11°C° 0 mm 4 mps 731 mmHg 87%
11:00 -10°C° 0 mm 4 mps 732 mmHg 85%
12:00 -9°C° 0 mm 4 mps 732 mmHg 85%
13:00 -9°C° 0 mm 4 mps 733 mmHg 84%
14:00 -9°C° 0 mm 4 mps 733 mmHg 84%
15:00 -9°C° 0.1 mm 4 mps 734 mmHg 86%
16:00 -10°C° 0.1 mm 4 mps 734 mmHg 88%
17:00 -10°C° 0.1 mm 3 mps 735 mmHg 90%
18:00 -12°C° 0 mm 3 mps 735 mmHg 91%
19:00 -13°C° 0 mm 3 mps 736 mmHg 92%
20:00 -14°C° 0 mm 3 mps 737 mmHg 93%
21:00 -15°C° 0 mm 3 mps 737 mmHg 94%
22:00 -16°C° 0 mm 3 mps 737 mmHg 95%
23:00 -17°C° 0 mm 3 mps 738 mmHg 96%

Day after tomorrow, 9 March, Tuesday

Time Temperature Precipitation Wind Pressure Humidity
00:00 -17°C° 0 mm 3 mps 738 mmHg 96%
01:00 -18°C° 0 mm 3 mps 739 mmHg 96%
02:00 -17°C° 0 mm 2 mps 739 mmHg 97%
03:00 -18°C° 0 mm 2 mps 740 mmHg 97%
04:00 -19°C° 0 mm 2 mps 740 mmHg 97%
05:00 -20°C° 0 mm 2 mps 740 mmHg 97%
06:00 -19°C° 0 mm 2 mps 741 mmHg 96%
07:00 -19°C° 0 mm 2 mps 741 mmHg 95%
08:00 -18°C° 0 mm 2 mps 741 mmHg 94%
09:00 -18°C° 0 mm 3 mps 742 mmHg 92%
10:00 -17°C° 0 mm 3 mps 742 mmHg 89%
11:00 -15°C° 0 mm 3 mps 742 mmHg 86%
12:00 -14°C° 0 mm 3 mps 742 mmHg 84%
13:00 -14°C° 0 mm 3 mps 743 mmHg 81%
14:00 -13°C° 0 mm 3 mps 743 mmHg 79%
15:00 -13°C° 0 mm 2 mps 743 mmHg 82%
16:00 -13°C° 0 mm 2 mps 743 mmHg 84%
17:00 -12°C° 0 mm 1 mps 743 mmHg 87%
18:00 -13°C° 0 mm 1 mps 743 mmHg 88%
19:00 -15°C° 0 mm 0 mps 744 mmHg 89%
20:00 -16°C° 0 mm 0 mps 744 mmHg 91%
21:00 -15°C° 0 mm 0 mps 744 mmHg 91%
22:00 -15°C° 0 mm 1 mps 745 mmHg 92%
23:00 -15°C° 0 mm 1 mps 745 mmHg 92%

10 March, Wednesday

Time Temperature Precipitation Wind Pressure Humidity
00:00 -17°C° 0.1 mm 2 mps 745 mmHg 93%
01:00 -17°C° 0.1 mm 2 mps 745 mmHg 94%
02:00 -17°C° 0.1 mm 3 mps 745 mmHg 95%
03:00 -18°C° 0.3 mm 3 mps 745 mmHg 95%
04:00 -18°C° 0.3 mm 3 mps 745 mmHg 95%
05:00 -19°C° 0.3 mm 4 mps 745 mmHg 95%
06:00 -19°C° 0.2 mm 4 mps 745 mmHg 94%
07:00 -20°C° 0.2 mm 4 mps 745 mmHg 93%
08:00 -20°C° 0.2 mm 4 mps 746 mmHg 92%
09:00 -19°C° 0.1 mm 4 mps 746 mmHg 90%
10:00 -17°C° 0.1 mm 3 mps 746 mmHg 87%
11:00 -16°C° 0.1 mm 3 mps 747 mmHg 85%
12:00 -16°C° 0 mm 3 mps 747 mmHg 83%
13:00 -15°C° 0 mm 3 mps 747 mmHg 80%
14:00 -15°C° 0 mm 3 mps 747 mmHg 78%
15:00 -16°C° 0 mm 3 mps 747 mmHg 81%
16:00 -16°C° 0 mm 3 mps 747 mmHg 83%
17:00 -16°C° 0 mm 2 mps 747 mmHg 86%
18:00 -18°C° 0 mm 2 mps 748 mmHg 87%
19:00 -19°C° 0 mm 2 mps 748 mmHg 88%
20:00 -20°C° 0 mm 2 mps 749 mmHg 90%
21:00 -21°C° 0 mm 2 mps 749 mmHg 90%
22:00 -21°C° 0 mm 2 mps 749 mmHg 91%
23:00 -23°C° 0 mm 2 mps 750 mmHg 91%

11 March, Thursday

Time Temperature Precipitation Wind Pressure Humidity
00:00 -23°C° 0 mm 2 mps 750 mmHg 92%
01:00 -24°C° 0 mm 2 mps 750 mmHg 92%
02:00 -24°C° 0 mm 2 mps 750 mmHg 93%
03:00 -24°C° 0 mm 2 mps 750 mmHg 92%
04:00 -25°C° 0 mm 2 mps 750 mmHg 92%
05:00 -25°C° 0 mm 2 mps 750 mmHg 92%
06:00 -24°C° 0 mm 2 mps 750 mmHg 91%
07:00 -23°C° 0 mm 2 mps 751 mmHg 90%
08:00 -21°C° 0 mm 2 mps 751 mmHg 88%
09:00 -21°C° 0 mm 3 mps 751 mmHg 86%
10:00 -18°C° 0 mm 3 mps 750 mmHg 83%
11:00 -16°C° 0 mm 3 mps 750 mmHg 80%
12:00 -16°C° 0 mm 3 mps 750 mmHg 79%
13:00 -16°C° 0 mm 4 mps 750 mmHg 77%
14:00 -15°C° 0 mm 4 mps 750 mmHg 76%
15:00 -15°C° 0 mm 4 mps 749 mmHg 78%
16:00 -16°C° 0 mm 4 mps 749 mmHg 81%
17:00 -16°C° 0 mm 3 mps 749 mmHg 83%
18:00 -18°C° 0 mm 4 mps 749 mmHg 85%
19:00 -18°C° 0 mm 4 mps 749 mmHg 86%
20:00 -19°C° 0 mm 4 mps 749 mmHg 88%
21:00 -21°C° 0 mm 5 mps 749 mmHg 89%
22:00 -21°C° 0 mm 5 mps 748 mmHg 89%
23:00 -21°C° 0 mm 5 mps 748 mmHg 90%

12 March, Friday

Time Temperature Precipitation Wind Pressure Humidity
00:00 -21°C° 0 mm 5 mps 747 mmHg 91%
01:00 -21°C° 0 mm 5 mps 747 mmHg 93%
02:00 -22°C° 0 mm 5 mps 746 mmHg 94%
03:00 -21°C° 0 mm 5 mps 746 mmHg 94%
04:00 -22°C° 0 mm 6 mps 745 mmHg 94%
05:00 -21°C° 0 mm 6 mps 744 mmHg 94%
06:00 -20°C° 0 mm 6 mps 744 mmHg 91%
07:00 -19°C° 0 mm 7 mps 743 mmHg 89%
08:00 -17°C° 0 mm 7 mps 742 mmHg 86%
09:00 -16°C° 0 mm 8 mps 742 mmHg 85%
10:00 -13°C° 0 mm 8 mps 741 mmHg 83%
11:00 -11°C° 0 mm 9 mps 741 mmHg 81%
12:00 -10°C° 0.4 mm 9 mps 740 mmHg 85%
13:00 -10°C° 0.4 mm 9 mps 739 mmHg 88%
14:00 -9°C° 0.4 mm 10 mps 738 mmHg 92%
15:00 -9°C° 0.3 mm 9 mps 738 mmHg 91%
16:00 -9°C° 0.3 mm 9 mps 737 mmHg 91%
17:00 -8°C° 0.3 mm 8 mps 737 mmHg 91%
18:00 -7°C° 0.1 mm 8 mps 736 mmHg 92%
19:00 -7°C° 0.1 mm 7 mps 736 mmHg 92%
20:00 -7°C° 0.1 mm 7 mps 735 mmHg 92%
21:00 -7°C° 0.4 mm 7 mps 735 mmHg 93%
22:00 -7°C° 0.4 mm 7 mps 734 mmHg 94%
23:00 -6°C° 0.4 mm 7 mps 734 mmHg 95%
Show more